Moses Lake, WA

6:54 AM PDT on August 27, 2016 (GMT -0700)
Grant County International

Weather History for KMWH - June, 2014

Change the Weather History Date:

Saturday, June 28, 2014

  Actual Average Record
Temperature  
Mean Temperature 70 °F 69 °F  
Max Temperature 81 °F 84 °F 112 °F (2015)
Min Temperature 58 °F 54 °F 45 °F (1985)
Degree Days  
Heating Degree Days 0 1  
Month to date heating degree days 24 51  
Since 1 June heating degree days 24 51  
Since 1 July heating degree days 5651 5878  
Cooling Degree Days 5 5  
Month to date cooling degree days 110 76  
Year to date cooling degree days 145 101  
Since 1 June cooling degree days 110 76  
Growing Degree Days 20 (Base 50)    
Moisture  
Dew Point 44 °F    
Average Humidity 43    
Maximum Humidity 62    
Minimum Humidity 23    
Precipitation  
Precipitation 0.00 in 0.02 in 0.15 in (2002)
Month to date precipitation 0.43 0.73  
Year to date precipitation 3.21 4.75  
Sea Level Pressure  
Sea Level Pressure 29.86 in    
Wind  
Wind Speed 12 mph (SW)    
Max Wind Speed 22 mph    
Max Gust Speed 32 mph    
Visibility 10 miles    
Events      
T = Trace of Precipitation, MM = Missing Value Source: NWS Daily Summary

Daily Weather History Graph

Daily Weather History Graph

Search for Another Location

Airport or City:

Trip Planner

Search our weather history database for the weather conditions in past years. The results will help you decide how hot, cold, wet, or windy it might be!

Date:

Astronomy

Jun. 28, 2014 Rise Set
Actual Time 5:03 AM PDT 8:57 PM PDT
Civil Twilight 4:23 AM PDT 9:37 PM PDT
Nautical Twilight 3:28 AM PDT 10:31 PM PDT
Astronomical Twilight 2:05 AM PDT 11:54 PM PDT
Moon 6:40 AM PDT (6/28) 9:34 PM PDT (6/28)
Length of Visible Light 17h 13m
Length of Day
15h 53m
New Moon, 2% of the Moon is Illuminated
Jun 28
New Moon
Jul 5
First Quarter
Jul 12
Full
Jul 18
Last Quarter
Jul 26
New

Hourly Weather History & Observations

Time (PDT) Temp. Dew Point Humidity Pressure Visibility Wind Dir Wind Speed Gust Speed Precip Events Conditions
12:52 AM 64.0 °F 48.9 °F 58% 29.79 in 10.0 mi WSW 4.6 mph - 0.00 in   Overcast
1:52 AM 64.0 °F 48.9 °F 58% 29.79 in 10.0 mi SW 5.8 mph - N/A   Scattered Clouds
2:52 AM 61.0 °F 46.9 °F 60% 29.81 in 10.0 mi WSW 10.4 mph - N/A   Scattered Clouds
3:52 AM 60.1 °F 46.9 °F 62% 29.81 in 10.0 mi WSW 5.8 mph - N/A   Overcast
4:52 AM 59.0 °F 46.9 °F 64% 29.83 in 10.0 mi WSW 10.4 mph - N/A   Overcast
5:52 AM 60.1 °F 46.9 °F 62% 29.85 in 10.0 mi SW 8.1 mph - N/A   Mostly Cloudy
6:52 AM 62.1 °F 46.9 °F 58% 29.87 in 10.0 mi WSW 10.4 mph - N/A   Mostly Cloudy
7:52 AM 66.0 °F 46.9 °F 50% 29.88 in 10.0 mi SW 12.7 mph - N/A   Mostly Cloudy
8:52 AM 69.1 °F 44.1 °F 40% 29.89 in 10.0 mi SW 9.2 mph - N/A   Mostly Cloudy
9:52 AM 72.0 °F 45.0 °F 38% 29.89 in 10.0 mi SW 10.4 mph - N/A   Partly Cloudy
10:52 AM 73.9 °F 45.0 °F 35% 29.88 in 10.0 mi SW 16.1 mph - N/A   Clear
11:52 AM 75.0 °F 43.0 °F 32% 29.89 in 10.0 mi WSW 15.0 mph 20.7 mph N/A   Clear
12:52 PM 79.0 °F 41.0 °F 26% 29.87 in 10.0 mi SSW 17.3 mph 23.0 mph N/A   Scattered Clouds
1:52 PM 79.0 °F 41.0 °F 26% 29.86 in 10.0 mi South 18.4 mph 25.3 mph N/A   Partly Cloudy
2:52 PM 80.1 °F 39.9 °F 24% 29.86 in 10.0 mi South 20.7 mph - N/A   Scattered Clouds
3:52 PM 81.0 °F 41.0 °F 24% 29.85 in 10.0 mi South 16.1 mph 23.0 mph N/A   Clear
4:52 PM 78.1 °F 39.9 °F 25% 29.85 in 10.0 mi SSW 9.2 mph - N/A   Partly Cloudy
5:52 PM 80.1 °F 43.0 °F 27% 29.83 in 10.0 mi SSW 15.0 mph - N/A   Clear
6:52 PM 78.1 °F 39.9 °F 25% 29.83 in 10.0 mi West 16.1 mph - N/A   Clear
7:52 PM 75.9 °F 41.0 °F 29% 29.84 in 10.0 mi West 19.6 mph - N/A   Clear
8:52 PM 70.0 °F 42.1 °F 36% 29.87 in 10.0 mi NW 8.1 mph - N/A   Clear
9:52 PM 68.0 °F 42.1 °F 39% 29.89 in 10.0 mi NW 9.2 mph - N/A   Clear
10:52 PM 64.0 °F 46.0 °F 52% 29.91 in 10.0 mi West 9.2 mph - N/A   Clear
11:52 PM 61.0 °F 45.0 °F 56% 29.92 in 10.0 mi Calm Calm - N/A   Clear